H-2A R/B, 61440

Orbit data source: Space-Track

H-2A R/B, 61440 is space debris in SSO originally from a launch on Thu, 26 Sep 2024 UTC launched from the Tanegashima Space Center (TNSTA). Debris objects in space refer to the collection of defunct objects orbiting the Earth. Examples of debris include non-operational satellites, rocket bodies, and fragments generated from explosions, collisions, or faulty payload assembly.

Loading next visibility...
Identifier
61440, 2024-176B
Orbit
SSO
Country
Flag of JPJP / JPN
Related business
Manufacturer
MHI Tobishima
Mission
Spacecraft
Bus & Motor
H-2A STAGE 2, Unknown motor
Mass
4,000 kg wet, 4,000 kg dry
Launch date (UTC)
2024-09-26 (1 year ago)
Launch vehicle
Unknown
Launch site
Tanegashima Space Center (TNSTA)
Object type
Payload
Rocket body
Debris
Shape & HBR
Cyl, 4.6 m
Radar Cross Section
35.186 m², Large (>1 m²)

Expand to show TLE details & history
Last TLE update: 1 day ago

TLE from 1 day ago
0 H-2A R/B
1 61440U 24176B   26071.36133370  .00107533  00000-0  82715-3 0  9992
2 61440  97.2628 209.7577 0008082 270.2825  89.7512 15.71651297 82086
Epoch: 2026-03-12T08:40Z
TLE epoch observation values (Epoch: 2026-03-12T08:40:19.231Z)
Latitude
-0.00006°
Longitude
-90.33474°
Altitude
357.322 km
Speed
7.695 km/s
True Right ascension
13h 59m 01s
True Declination
0° 00' 00"
Sunlit
Object was in full shadow at epoch
Visualization orbit readout
Latitude
Unknown
Longitude
Unknown
Altitude
Unknown
Speed
Unknown
Apparent Right ascension
Unknown
Apparent Declination
Unknown
Sunlit
N/A
Visualization observer readout
Local Sidereal Time
18:40:38
Azimuth
Unknown
Elevation
Unknown
Doppler factor
Unknown
Orbital elements
Apogee altitude
356.507 km
Perigee altitude
345.63 km
Semi-major axis
6,729.205 km
Eccentricity
0.00081
Inclination
97.2628°
RAAN
209.7577°
Arg. of periapsis
270.2825°
True anomaly
89.84381°
Mean anomaly
89.7512°
Eccentric anomaly
89.79751°
Mean motion
3.93186 °/min
Orbital period
91.56 mins
BSTAR
0.00082715
Loading maneuver chart data...
Computing Atmospheric mass density...
Loading historical data...
Loading historical data...
Loading historical data...
Loading historical data...
Loading historical data...
Loading historical data...
Loading historical data...
Other satellites on launch #176 in the year 2024 (2024-09-26 UTC)

Documentation

Showing up to 5 results
|